Regional Weather Roundup
Issued by NWS Cleveland, OH

Home | Current Version | Previous Version | Graphics & Text | Print | Product List | Glossary On
Versions: 1 2 3 4 5 6 7 8 9 10 11 12 13 14 15 16 17 18 19 20 21 22 23 24 25 26 27 28 29 30 31 32 33 34 35 36 37 38 39 40 41 42 43 44 45 46 47 48 49 50
000
ASUS41 KCLE 250710
RWRCLE
OHIO REGIONAL WEATHER ROUNDUP
NATIONAL WEATHER SERVICE CLEVELAND, OH
300 AM EDT SAT APR 25 2015

NOTE: "FAIR" INDICATES FEW OR NO CLOUDS BELOW 12,000 FEET WITH NO
SIGNIFICANT WEATHER AND/OR OBSTRUCTIONS TO VISIBILITY.

OHZ001>008-015>018-024>027-034-035-043-044-250800-
   NORTHWEST OHIO

CITY           SKY/WX    TMP DP  RH WIND       PRES   REMARKS
DEFIANCE       CLOUDY    47  36  65 E12       29.93F
FINDLAY        CLOUDY    49  32  52 NE13      29.93F
TOLEDO EXPRESS LGT RAIN  44  35  70 E12       29.97F
TOLEDO EXEC    LGT RAIN  45  34  65 NE9       29.99S
LIMA           CLOUDY    47  36  65 NE7       29.91F
$$

OHZ009>014-019>023-028>033-038-089-250800-
   NORTHEAST OHIO

CITY           SKY/WX    TMP DP  RH WIND       PRES   REMARKS
CLE-HOPKINS    LGT RAIN  41  25  53 S9        30.02R
CLE-LAKEFRONT  CLOUDY    43  21  41 S8        29.99S
CUY CO. ARPT   NOT AVBL
LORAIN-ELYRIA  LGT RAIN  41  30  65 CALM      30.02R
ASHTABULA      CLOUDY    34  25  69 CALM      29.99F
AKRON-CANTON   CLOUDY    41  21  44 E7        29.98F
WOOSTER        CLOUDY    41  26  55 NE6       29.98S
MANSFIELD      CLOUDY    44  27  51 NE9       29.95R
YOUNGSTOWN     CLOUDY    34  26  72 SE5       29.97F WCI  30
$$

OHZ042-051>053-060>062-070>072-077>081-250800-
  SOUTHWEST OHIO

CITY           SKY/WX    TMP DP  RH WIND       PRES   REMARKS
CINC-COVINGTON CLOUDY    52  37  56 E3        29.88S
CINC-LUNKEN    CLOUDY    49  45  86 CALM      29.89F
HAMILTON       LGT RAIN  51  40  65 CALM      29.90S
DAYTON         CLOUDY    50  39  66 E6        29.90S
WRIGHT-PAT AFB CLOUDY    49  40  71 E3        29.90S
DAYTON GENERAL CLOUDY    50  35  56 E5        29.89R
WILMINGTON     CLOUDY    50  33  52 E6        29.89F
$$

OHZ036-037-039>041-045>050-054>059-063>069-073>076-082>088-250800-
  CENTRAL AND SOUTHEAST OHIO

CITY           SKY/WX    TMP DP  RH WIND       PRES   REMARKS
COLUMBUS       LGT RAIN  49  35  58 CALM      29.92S
OSU AIRPORT    CLOUDY    50  32  50 CALM      29.92S
BOLTON FIELD   LGT RAIN  48  39  70 N3        29.92R
RICKENBACK AFB CLOUDY    47  38  70 NE3       29.91S
NEWARK         CLOUDY    47  30  51 NE3       29.93S
MARION         CLOUDY    47  31  53 E6        29.93F
LANCASTER      CLOUDY    48  40  73 CALM      29.91F
ZANESVILLE     CLOUDY    46  23  40 E7        29.93F
NEW PHILLY     CLOUDY    45  22  40 E7        29.96F
$$



USA.gov is the U.S. government's official web portal to all federal, state and local government web resources and services.